| time (UTC) | temp F | wind direction | speed MPH | gust MPH | rain 1hr in | rain 24hr in | rain mn in | humidity % | barometer mb |
| 20260905050021 | 52 | 316 | 0.0 | 0.0 | 0.00 | 0.09 | 0.09 | 73 | 1015.8 |
| 20260905044520 | 53 | 316 | 0.0 | 0.0 | 0.00 | 0.09 | 0.09 | 73 | 1015.7 |
| 20260905043022 | 53 | 316 | 0.0 | 0.0 | 0.00 | 0.09 | 0.09 | 74 | 1015.6 |
| 20260905041518 | 53 | 316 | 0.0 | 0.0 | 0.00 | 0.09 | 0.09 | 75 | 1015.6 |
| 20260905040021 | 54 | 316 | 0.0 | 0.0 | 0.00 | 0.09 | 0.09 | 75 | 1015.5 |
| 20260905034515 | 54 | 316 | 0.0 | 0.0 | 0.00 | 0.09 | 0.09 | 76 | 1015.3 |
| 20260905033012 | 55 | 316 | 0.0 | 0.0 | 0.00 | 0.09 | 0.09 | 77 | 1015.1 |
| 20260905031516 | 56 | 316 | 0.0 | 0.0 | 0.00 | 0.09 | 0.09 | 78 | 1014.8 |
| 20260905030010 | 57 | 316 | 0.0 | 0.0 | 0.00 | 0.09 | 0.09 | 78 | 1014.7 |
| 20260905024511 | 57 | 316 | 0.0 | 0.0 | 0.00 | 0.09 | 0.09 | 79 | 1014.6 |
| 20260905023016 | 58 | 316 | 0.0 | 1.0 | 0.00 | 0.09 | 0.09 | 80 | 1014.7 |
| 20260905021507 | 59 | 316 | 0.0 | 1.0 | 0.00 | 0.09 | 0.09 | 80 | 1014.6 |
| 20260905020006 | 60 | 316 | 0.0 | 1.0 | 0.00 | 0.09 | 0.09 | 80 | 1014.6 |
| 20260905014507 | 60 | 239 | 0.0 | 2.0 | 0.00 | 0.09 | 0.09 | 80 | 1014.5 |
| 20260905013007 | 61 | 228 | 3.0 | 5.0 | 0.00 | 0.09 | 0.09 | 79 | 1014.3 |
| 20260905011504 | 60 | 316 | 1.0 | 4.0 | 0.00 | 0.09 | 0.09 | 80 | 1014.1 |
| 20260905010004 | 59 | 338 | 0.0 | 1.0 | 0.00 | 0.09 | 0.09 | 80 | 1014.1 |
| 20260905004507 | 59 | 326 | 0.0 | 2.0 | 0.00 | 0.09 | 0.09 | 79 | 1014.2 |
| 20260905003009 | 59 | 154 | 0.0 | 2.0 | 0.01 | 0.09 | 0.09 | 79 | 1014.3 |
| 20260905001503 | 60 | 198 | 3.0 | 6.0 | 0.01 | 0.09 | 0.09 | 75 | 1014.5 |
| 20260905000100 | 61 | 248 | 0.0 | 2.0 | 0.01 | 0.10 | 0.09 | 76 | 1014.0 |
| 20260904234559 | 60 | 5 | 0.0 | 4.0 | 0.03 | 0.10 | 0.09 | 79 | 1014.0 |
| 20260904233058 | 60 | 355 | 0.0 | 3.0 | 0.02 | 0.09 | 0.08 | 79 | 1014.0 |
| 20260904231556 | 61 | 347 | 0.0 | 2.0 | 0.02 | 0.09 | 0.08 | 80 | 1013.7 |
| 20260904230107 | 62 | 290 | 0.0 | 4.0 | 0.02 | 0.09 | 0.08 | 80 | 1013.6 |
| 20260904224603 | 63 | 283 | 0.0 | 2.0 | 0.01 | 0.07 | 0.06 | 79 | 1013.5 |
| 20260904223107 | 64 | 310 | 0.0 | 3.0 | 0.02 | 0.07 | 0.06 | 78 | 1013.4 |
| 20260904221606 | 63 | 323 | 0.0 | 3.0 | 0.02 | 0.07 | 0.06 | 79 | 1013.3 |
| 20260904220051 | 62 | 326 | 0.0 | 3.0 | 0.02 | 0.07 | 0.06 | 79 | 1013.3 |
| 20260904214552 | 63 | 186 | 2.0 | 9.0 | 0.01 | 0.06 | 0.05 | 76 | 1013.3 |
| 20260904213052 | 65 | 186 | 5.0 | 9.0 | 0.00 | 0.05 | 0.04 | 66 | 1013.1 |
| 20260904211549 | 66 | 151 | 5.0 | 9.0 | 0.00 | 0.05 | 0.04 | 65 | 1012.9 |
| 20260904210048 | 66 | 209 | 1.0 | 7.0 | 0.00 | 0.07 | 0.04 | 65 | 1012.8 |
| 20260904204545 | 64 | 200 | 2.0 | 5.0 | 0.00 | 0.07 | 0.04 | 69 | 1012.7 |
| 20260904203044 | 64 | 193 | 2.0 | 4.0 | 0.00 | 0.07 | 0.04 | 69 | 1012.7 |
| 20260904201545 | 64 | 102 | 1.0 | 3.0 | 0.00 | 0.07 | 0.04 | 71 | 1012.8 |
| 20260904200101 | 64 | 259 | 1.0 | 5.0 | 0.00 | 0.07 | 0.04 | 69 | 1012.9 |
| 20260904194545 | 64 | 93 | 0.0 | 6.0 | 0.00 | 0.07 | 0.04 | 72 | 1013.1 |
| 20260904193041 | 63 | 332 | 3.0 | 5.0 | 0.00 | 0.07 | 0.04 | 74 | 1013.1 |
| 20260904191538 | 61 | 166 | 0.0 | 4.0 | 0.00 | 0.07 | 0.04 | 76 | 1013.3 |
| 20260904190034 | 61 | 81 | 0.0 | 4.0 | 0.00 | 0.07 | 0.04 | 78 | 1013.3 |
| 20260904184532 | 61 | 153 | 0.0 | 3.0 | 0.00 | 0.07 | 0.04 | 79 | 1013.3 |
| 20260904183028 | 60 | 89 | 1.0 | 5.0 | 0.00 | 0.07 | 0.04 | 80 | 1013.3 |
| 20260904181526 | 60 | 83 | 1.0 | 4.0 | 0.00 | 0.07 | 0.04 | 80 | 1013.1 |
| 20260904180022 | 59 | 15 | 0.0 | 4.0 | 0.00 | 0.07 | 0.04 | 81 | 1013.0 |
| 20260904174519 | 59 | 333 | 0.0 | 2.0 | 0.00 | 0.07 | 0.04 | 80 | 1012.9 |
| 20260904173017 | 58 | 249 | 1.0 | 4.0 | 0.00 | 0.07 | 0.04 | 76 | 1012.9 |
| 20260904171533 | 57 | 244 | 0.0 | 3.0 | 0.00 | 0.07 | 0.04 | 77 | 1012.8 |
| 20260904170010 | 56 | 306 | 0.0 | 1.0 | 0.00 | 0.08 | 0.04 | 74 | 1012.7 |
| 20260904164510 | 56 | 279 | 0.0 | 0.0 | 0.00 | 0.08 | 0.04 | 73 | 1012.7 |
| 20260904163014 | 56 | 239 | 0.0 | 4.0 | 0.00 | 0.08 | 0.04 | 73 | 1012.7 |
| 20260904161504 | 56 | 261 | 0.0 | 5.0 | 0.00 | 0.08 | 0.04 | 72 | 1012.6 |
| 20260904154600 | 55 | 128 | 0.0 | 5.0 | 0.00 | 0.13 | 0.04 | 72 | 1012.7 |
| 20260904153111 | 55 | 206 | 0.0 | 3.0 | 0.00 | 0.13 | 0.04 | 71 | 1012.5 |
| 20260904151552 | 54 | 211 | 0.0 | 2.0 | 0.00 | 0.13 | 0.04 | 71 | 1012.2 |
| 20260904150053 | 54 | 211 | 0.0 | 1.0 | 0.00 | 0.13 | 0.04 | 71 | 1012.0 |
| 20260904144601 | 53 | 335 | 0.0 | 0.0 | 0.01 | 0.13 | 0.04 | 71 | 1011.9 |
| 20260904143108 | 53 | 88 | 0.0 | 0.0 | 0.01 | 0.13 | 0.04 | 71 | 1011.9 |
| 20260904141547 | 53 | 295 | 0.0 | 0.0 | 0.01 | 0.13 | 0.04 | 72 | 1011.8 |
| 20260904140046 | 53 | 295 | 0.0 | 0.0 | 0.03 | 0.20 | 0.04 | 72 | 1011.6 |
| 20260904134544 | 53 | 270 | 0.0 | 0.0 | 0.02 | 0.19 | 0.03 | 73 | 1011.5 |
| 20260904133045 | 54 | 27 | 0.0 | 0.0 | 0.03 | 0.19 | 0.03 | 73 | 1011.3 |
| 20260904131542 | 54 | 348 | 0.0 | 1.0 | 0.03 | 0.19 | 0.03 | 73 | 1011.3 |
| 20260904130042 | 54 | 80 | 0.0 | 1.0 | 0.01 | 0.25 | 0.01 | 73 | 1011.3 |
| 20260904124539 | 54 | 28 | 0.0 | 0.0 | 0.01 | 0.25 | 0.01 | 72 | 1011.1 |
| 20260904123043 | 54 | 178 | 0.0 | 3.0 | 0.00 | 0.24 | 0.00 | 71 | 1011.1 |
| 20260904121537 | 53 | 86 | 0.0 | 1.0 | 0.00 | 0.24 | 0.00 | 70 | 1011.0 |
| 20260904120044 | 53 | 133 | 0.0 | 0.0 | 0.00 | 0.25 | 0.00 | 70 | 1010.9 |
| 20260904114533 | 53 | 63 | 0.0 | 0.0 | 0.00 | 0.25 | 0.00 | 71 | 1010.7 |
| 20260904113035 | 53 | 63 | 0.0 | 0.0 | 0.00 | 0.25 | 0.00 | 70 | 1010.6 |
| 20260904111530 | 53 | 36 | 0.0 | 0.0 | 0.00 | 0.25 | 0.00 | 70 | 1010.5 |
| 20260904110028 | 52 | 36 | 0.0 | 0.0 | 0.00 | 0.25 | 0.00 | 70 | 1010.4 |
| 20260904104528 | 52 | 360 | 0.0 | 0.0 | 0.00 | 0.25 | 0.00 | 70 | 1010.4 |
| 20260904103027 | 52 | 335 | 0.0 | 0.0 | 0.00 | 0.25 | 0.00 | 71 | 1010.3 |
| 20260904101526 | 52 | 314 | 0.0 | 0.0 | 0.00 | 0.25 | 0.00 | 71 | 1010.2 |
| 20260904100025 | 52 | 314 | 0.0 | 0.0 | 0.00 | 0.25 | 0.00 | 71 | 1010.2 |
| 20260904094523 | 52 | 314 | 0.0 | 0.0 | 0.00 | 0.25 | 0.00 | 71 | 1010.1 |
| 20260904093023 | 52 | 227 | 0.0 | 0.0 | 0.00 | 0.25 | 0.00 | 71 | 1010.1 |
| 20260904091522 | 52 | 227 | 0.0 | 0.0 | 0.00 | 0.25 | 0.00 | 72 | 1010.0 |
| 20260904090024 | 52 | 336 | 0.0 | 1.0 | 0.00 | 0.25 | 0.00 | 72 | 1010.0 |
| 20260904084523 | 53 | 290 | 0.0 | 0.0 | 0.00 | 0.25 | 0.00 | 72 | 1010.1 |
| 20260904083018 | 53 | 216 | 0.0 | 0.0 | 0.00 | 0.25 | 0.00 | 71 | 1010.0 |
| 20260904081516 | 53 | 216 | 0.0 | 0.0 | 0.00 | 0.25 | 0.00 | 71 | 1010.1 |
| 20260904080015 | 53 | 216 | 0.0 | 0.0 | 0.00 | 0.25 | 0.00 | 72 | 1010.0 |
| 20260904074516 | 53 | 216 | 0.0 | 0.0 | 0.00 | 0.25 | 0.00 | 72 | 1010.0 |
| 20260904073012 | 53 | 216 | 0.0 | 0.0 | 0.00 | 0.25 | 0.00 | 72 | 1010.0 |
| 20260904071512 | 53 | 216 | 0.0 | 0.0 | 0.00 | 0.25 | 0.00 | 72 | 1010.0 |
| 20260904070014 | 53 | 216 | 0.0 | 0.0 | 0.00 | 0.25 | 0.25 | 73 | 1010.0 |
| 20260904064510 | 53 | 216 | 0.0 | 0.0 | 0.00 | 0.25 | 0.25 | 74 | 1010.0 |
| 20260904063009 | 53 | 216 | 0.0 | 0.0 | 0.00 | 0.25 | 0.25 | 74 | 1010.2 |
| 20260904061508 | 53 | 216 | 0.0 | 0.0 | 0.00 | 0.25 | 0.25 | 75 | 1010.1 |
| 20260904060011 | 54 | 216 | 0.0 | 0.0 | 0.00 | 0.25 | 0.25 | 76 | 1010.1 |
| 20260904054518 | 54 | 216 | 0.0 | 0.0 | 0.00 | 0.25 | 0.25 | 76 | 1010.1 |
| 20260904053005 | 54 | 216 | 0.0 | 0.0 | 0.00 | 0.25 | 0.25 | 75 | 1010.1 |
| 20260904051505 | 55 | 216 | 0.0 | 0.0 | 0.00 | 0.25 | 0.25 | 76 | 1010.1 |